GOES 17

Last updated on Tue Oct 14 2025 00:02:22 GMT+0000 (Coordinated Universal Time)

1 43226U 18022A 25286.54111168 -.00000195 00000+0 00000+0 0 9994 2 43226 0.2998 90.6254 0003071 161.4377 235.6042 1.00271421 27956
UTC large
Height (km)
Speed (km/s)
/
Latitude / Longitude
Inclination (degrees)
Orbital Period (minutes)
Azimuth
Elevation
Range (km)
Doppler Factor

Next 0 passes for location: London (51.5072 / 0.1276)

Sorry there are no passes over London.